Home > Weather > Ulsteinvik > Past weeks

Flag for Norway Past Weather in Ulsteinvik, Norway — Yesterday and Last 2 Weeks

Now
63 °F

Sunny.


Feels Like: 63 °F
Forecast: 50 / 58 °F
Wind: 5 mph from Southwest

Location: Orsta-Volda / Hovden

Current Time: May 30, 2016 at 6:39:20 PM

Latest Report: May 30, 2016 at 5:50 PM


Visibility: 10 mi

Pressure: 30.15 "Hg

Humidity: 68%

Dew Point: 52 °F

Location of UlsteinvikLocation

Past Weather in Ulsteinvik — Graph

°F

Ulsteinvik Temperature Yesterday

Maximum temperature yesterday: 72 °F (at 3:50 PM)
Minimum temperature yesterday: 59 °F (at 10:50 PM)
Average temperature yesterday: 67 °F

High & Low Weather Summary for the Past Weeks

 TemperatureHumidityPressure
High72 °F (May 29, 3:50 PM)100% (May 16, 12:50 AM)30.30 "Hg (May 16, 12:50 AM)
Low34 °F (May 16, 12:50 AM)35% (May 29, 1:50 PM)29.59 "Hg (May 20, 10:50 AM)
Average52 °F63%29.97 "Hg
* Reported May 15 4:50 PM — May 30 4:50 PM, Ulsteinvik, Weather by CustomWeather, © 2016

Note: Actual official high and low records may vary slightly from our data, if they occured in-between our weather recording intervals... More about our weather records

Advertising

Ulsteinvik Weather History for the Previous 24 Hours

Scroll right to see more
 ConditionsComfort  
Time TempWeatherWind HumidityBarometerVisibility
4:50 PM
Mon, May 30
64 °FSunny.6 mph64%30.15 "Hg10 mi
3:50 PM64 °FSunny.3 mph60%30.15 "Hg10 mi
2:50 PM64 °FSunny.5 mph60%30.15 "Hg10 mi
1:50 PM66 °FSunny.3 mph49%30.15 "Hg10 mi
12:50 PM66 °FSunny.2 mph49%30.15 "Hg10 mi
11:50 AM64 °FSunny.3 mph52%30.15 "Hg10 mi
10:50 AM64 °FSunny.5 mph56%30.15 "Hg10 mi
9:50 AM63 °FSunny.2 mph56%30.18 "Hg10 mi
8:50 AM59 °FSunny.2 mph63%30.18 "Hg10 mi
7:50 AM57 °FSunny.2 mph67%30.18 "Hg10 mi
6:50 AM54 °FSunny.1 mph77%30.18 "Hg10 mi
5:50 AM48 °FSunny.1 mph94%30.18 "Hg10 mi
10:50 PM
Sun, May 29
59 °FSunny.1 mph72%30.15 "Hg10 mi
9:20 PM63 °FSunny.1 mph59%30.12 "Hg10 mi
7:50 PM64 °FSunny.1 mph56%30.12 "Hg10 mi
6:50 PM66 °FSunny.3 mph46%30.12 "Hg10 mi
Weather by CustomWeather, © 2016

See weather overviewHow to use our weather pages